Regional Weather Roundup
Issued by NWS

Home | Current Version | Previous Version | Text Only | Print | Product List | Glossary On
Versions: 1 2 3 4 5 6 7 8 9 10 11 12 13 14 15 16 17 18 19 20 21 22 23 24 25 26 27 28 29 30 31 32 33 34 35 36 37 38 39 40 41 42 43 44 45 46 47 48 49 50
000
ASUS43 KLOT 211704
RWRIL

ILLINOIS REGIONAL WEATHER ROUNDUP
NATIONAL WEATHER SERVICE CHICAGO/ROMEOVILLE IL
1200 PM CDT FRI JUL 21 2017

NOTE: "FAIR" INDICATES FEW OR NO CLOUDS BELOW 12,000 FEET WITH NO
SIGNIFICANT WEATHER AND/OR OBSTRUCTIONS TO VISIBILITY.

* THESE STATIONS ARE NOT UNDER NWS QUALITY CONTROL. THEY ALSO MAY NOT
  REPORT WEATHER SUCH AS PRECIPITATION OR FOG.

ILZ001-002-007-009-015-016-024-211800-
NORTHWEST ILLINOIS

CITY           SKY/WX    TMP DP  RH WIND       PRES   REMARKS
MOLINE         CLOUDY    84  72  67 SE8       29.95F HX  89
STERLING*      PTSUNNY   83  75  77 CALM      29.98F HX  90
SAVANNA*       CLOUDY    80  74  80 SE7       29.98S HX  85
$$

ILZ003-004-008-010-011-017-018-211800-
NORTH CENTRAL ILLINOIS

CITY           SKY/WX    TMP DP  RH WIND       PRES   REMARKS
ROCKFORD       CLOUDY    82  73  74 S8        30.00S HX  87
FREEPORT*      CLOUDY    78  73  84 S6        30.00F HX  81
ROCHELLE*      CLOUDY    79  75  86 S6        30.00S HX  83
DE KALB*       CLOUDY    80  74  83 SE9       30.01F HX  84
PERU*          CLOUDY    82  72  70 S8        29.99S HX  87
$$

ILZ005-006-012>014-019>023-211800-
NORTHEAST ILLINOIS

CITY           SKY/WX    TMP DP  RH WIND       PRES   REMARKS
CHICAGO-OHARE  CLOUDY    86  71  60 SE5       29.99F HX  91
CHICAGO-MIDWAY CLOUDY    85  71  63 S8        30.00S HX  90
AURORA         CLOUDY    82  73  74 SE9       29.99F HX  87
LANSING*       CLOUDY    82  69  65 SE3       30.01S HX  85
JOLIET*        CLOUDY    83  74  72 SE8       29.99F HX  90
WAUKEGAN       MOSUNNY   83  71  67 SE10      29.99F HX  87
DUPAGE AIRPORT CLOUDY    81  72  74 SE9       29.99F HX  85
WHEELING       CLOUDY    83  72  69 SE8       30.00F HX  88
MORRIS*        CLOUDY    81  74  80 SE6       29.98F HX  86
ROMEOVILLE*    PTSUNNY   82  69  66 SE8       29.99F HX  85
NORTHERLY ISL    N/A     79  70  74 CALM        N/A  HX  82
$$

LMZ740>746-211800-
SOUTHERN LAKE MICHIGAN

STATION/POSITION SKY/WX   TEMP    WIND        PRES    VSBY  WAVE
                          AIR SEA DIR/SP/G                  HT/PER
                          (F)     (DEG/KT/KT) (MB)    (MI)  (FT/S)
SOUTHERN BUOY              72 71  200/  4/  4 1016.2          0
WILMETTE HARBOR            74 73  130/  4/  6   N/A           1
HARRISON CRIB              77     100/  5/  5   N/A
BURNHAM HARBOR             79                   N/A
CALUMET HARBOR             76      50/  6/  7 1015.6F
BURNS HARBOR               76      30/  5/  6 1016.6R
MICHIGAN CITY              77     330/  6/  6   N/A
MICHIGAN CITY 6N           76 76   10/  4/  4   N/A           0
ST. JOSEPH                 75 76  320/  6/  8 1016.2R         0
$$

ILZ025>027-034>036-040-047-049-050-058-095>099-211800-
WEST-CENTRAL ILLINOIS

CITY           SKY/WX    TMP DP  RH WIND       PRES   REMARKS
QUINCY         SUNNY     93  76  57 SW6       29.96F HX 105
GALESBURG*     SUNNY     87  76  69 SE5       29.97F HX  97
MACOMB*        SUNNY     89  78  70 S9        29.98F HX 103
JACKSONVILLE*  SUNNY     90  76  62 SW7       29.98S HX 101
PITTSFIELD*    MOSUNNY   93  76  57 SW7       29.99F HX 104
$$

ILZ028>032-037-038-041>044-048-051>054-059>061-211800-
CENTRAL ILLINOIS

CITY           SKY/WX    TMP DP  RH WIND       PRES   REMARKS
PONTIAC        CLOUDY    85  78  80 S5        30.00F HX  96
BLOOMINGTON    CLOUDY    88  74  63 S7        30.01F HX  96
DECATUR        SUNNY     90  78  68 VRB5      30.00S HX 104
PEORIA         SUNNY     89  75  63 SE6G17    29.98F HX  99
LACON*         CLOUDY    84  75  73 SE5       29.98F HX  92
LINCOLN*       SUNNY     90  79  70 CALM      29.99F HX 105
SPRINGFIELD    SUNNY     93  79  63 W8        29.98  HX 110
TAYLORVILLE    SUNNY     91  79  67 CALM      30.00S HX 107
$$

ILZ033-039-045-046-055>057-062-063-211800-
EAST-CENTRAL ILLINOIS

CITY           SKY/WX    TMP DP  RH WIND       PRES   REMARKS
CHAMPAIGN      CLOUDY    88  75  65 SW7       30.02R HX  97
RANTOUL*       CLOUDY    86  76  71 CALM      30.02S HX  96
MATTOON        SUNNY     91  78  65 S7        30.00R HX 106
PARIS*         PTSUNNY   89  77  68 CALM      30.02S HX 101
$$

ILZ079-100>102-211800-
SOUTHWEST ILLINOIS

CITY           SKY/WX    TMP DP  RH WIND       PRES   REMARKS
ALTON          MOSUNNY   91  75  59 W8        29.99R HX 102
BELLEVILLE     SUNNY     95  75  51 W7        29.99F HX 107
CAHOKIA*       SUNNY     97  73  45 CALM      29.98F HX 107
SPARTA*        SUNNY     94  73  51 NW3       30.01S HX 103
$$

ILZ064>066-069>071-074>076-080>082-084>086-088>090-092>094-211800-
SOUTH-CENTRAL ILLINOIS

CITY           SKY/WX    TMP DP  RH WIND       PRES   REMARKS
CARBONDALE     SUNNY     92  80  68 W6        30.00S HX 110
CAIRO*         SUNNY     91  79  67 S6        30.01F HX 108
EFFINGHAM*     SUNNY     94  77  58 E3        30.01S HX 108
MARION         SUNNY     93  75  55 NW6       30.01F HX 104
MT. VERNON     SUNNY     94  79  61 S7        30.00S HX 111
CENTRALIA*     SUNNY     95  78  57 SE5       29.98F HX 111
SALEM*         SUNNY     95  75  52 CALM      29.99S HX 107
METROPOLIS*    SUNNY     93  78  62 SW7       30.01F HX 108
$$

ILZ067-068-072-073-078-083-087-091-211800-
SOUTHEAST ILLINOIS

CITY           SKY/WX    TMP DP  RH WIND       PRES   REMARKS
LAWRENCEVILLE  SUNNY     90  78  68 S9        30.01R HX 104
FLORA*         SUNNY     92  78  64 SE7       30.00S HX 108
FAIRFIELD*     SUNNY     91  77  64 SE5       30.00S HX 104
HARRISBURG*    SUNNY     92  79  65 CALM      30.00F HX 109
ROBINSON*      MOSUNNY   89  78  70 S8        30.01S HX 102
CARMI*         SUNNY     89  81  76 S7        30.00S HX 108
$$

ABBREVIATIONS USED IN REMARKS
   TC - TEMPERATURE IN CELSIUS
  WCI - WIND CHILL INDEX
   HX - HEAT INDEX
  VSB - VISIBILITY
$$




USA.gov is the U.S. government's official web portal to all federal, state and local government web resources and services.